EN

Hourly Weather Kyzylsharua

Today, 25 July, Sunday

Time Temperature Precipitation Wind Pressure Humidity
00:00 +29°C° 0 mm 3 mps 701 mmHg 26%
01:00 +28°C° 0 mm 3 mps 700 mmHg 28%
02:00 +27°C° 0 mm 3 mps 700 mmHg 29%
03:00 +27°C° 0 mm 2 mps 701 mmHg 29%
04:00 +26°C° 0 mm 2 mps 701 mmHg 29%
05:00 +26°C° 0 mm 2 mps 701 mmHg 28%
06:00 +29°C° 0 mm 2 mps 701 mmHg 24%
07:00 +32°C° 0 mm 2 mps 702 mmHg 21%
08:00 +35°C° 0 mm 2 mps 702 mmHg 17%
09:00 +37°C° 0 mm 2 mps 702 mmHg 15%
10:00 +39°C° 0 mm 3 mps 702 mmHg 14%
11:00 +42°C° 0 mm 4 mps 702 mmHg 12%
12:00 +42°C° 0 mm 4 mps 702 mmHg 11%
13:00 +43°C° 0 mm 4 mps 702 mmHg 11%
14:00 +44°C° 0 mm 4 mps 702 mmHg 10%
15:00 +45°C° 0 mm 5 mps 702 mmHg 10%
16:00 +44°C° 0 mm 6 mps 702 mmHg 11%
17:00 +44°C° 0 mm 6 mps 702 mmHg 11%
18:00 +41°C° 0 mm 5 mps 702 mmHg 12%
19:00 +37°C° 0 mm 3 mps 702 mmHg 14%
20:00 +34°C° 0 mm 2 mps 702 mmHg 16%
21:00 +32°C° 0 mm 2 mps 702 mmHg 17%
22:00 +31°C° 0 mm 2 mps 701 mmHg 18%
23:00 +30°C° 0 mm 2 mps 701 mmHg 19%

Tomorrow, 26 July, Monday

Time Temperature Precipitation Wind Pressure Humidity
00:00 +29°C° 0 mm 2 mps 701 mmHg 20%
01:00 +29°C° 0 mm 2 mps 701 mmHg 21%
02:00 +28°C° 0 mm 2 mps 700 mmHg 22%
03:00 +28°C° 0 mm 2 mps 700 mmHg 22%
04:00 +28°C° 0 mm 2 mps 700 mmHg 22%
05:00 +28°C° 0 mm 2 mps 700 mmHg 22%
06:00 +30°C° 0 mm 2 mps 700 mmHg 19%
07:00 +34°C° 0 mm 2 mps 700 mmHg 17%
08:00 +36°C° 0 mm 1 mps 701 mmHg 14%
09:00 +38°C° 0 mm 2 mps 701 mmHg 13%
10:00 +40°C° 0 mm 3 mps 701 mmHg 12%
11:00 +42°C° 0 mm 3 mps 701 mmHg 10%
12:00 +43°C° 0 mm 3 mps 700 mmHg 10%
13:00 +44°C° 0 mm 3 mps 700 mmHg 10%
14:00 +44°C° 0 mm 4 mps 700 mmHg 9%
15:00 +44°C° 0 mm 4 mps 699 mmHg 10%
16:00 +44°C° 0 mm 4 mps 699 mmHg 10%
17:00 +44°C° 0 mm 4 mps 699 mmHg 10%
18:00 +42°C° 0 mm 4 mps 699 mmHg 12%
19:00 +38°C° 0 mm 3 mps 699 mmHg 14%
20:00 +36°C° 0 mm 2 mps 699 mmHg 16%
21:00 +35°C° 0 mm 2 mps 699 mmHg 18%
22:00 +34°C° 0 mm 3 mps 699 mmHg 21%
23:00 +33°C° 0 mm 4 mps 699 mmHg 23%

Day after tomorrow, 27 July, Tuesday

Time Temperature Precipitation Wind Pressure Humidity
00:00 +32°C° 0 mm 4 mps 699 mmHg 26%
01:00 +30°C° 0 mm 3 mps 699 mmHg 30%
02:00 +29°C° 0 mm 3 mps 699 mmHg 33%
03:00 +28°C° 0 mm 3 mps 699 mmHg 35%
04:00 +27°C° 0 mm 3 mps 700 mmHg 37%
05:00 +26°C° 0 mm 2 mps 700 mmHg 39%
06:00 +27°C° 0 mm 2 mps 700 mmHg 38%
07:00 +28°C° 0 mm 2 mps 700 mmHg 38%
08:00 +29°C° 0 mm 2 mps 701 mmHg 37%
09:00 +31°C° 0 mm 3 mps 701 mmHg 35%
10:00 +33°C° 0 mm 3 mps 701 mmHg 33%
11:00 +34°C° 0 mm 4 mps 701 mmHg 31%
12:00 +35°C° 0 mm 4 mps 700 mmHg 29%
13:00 +36°C° 0 mm 4 mps 700 mmHg 28%
14:00 +37°C° 0 mm 5 mps 700 mmHg 26%
15:00 +37°C° 0 mm 5 mps 699 mmHg 26%
16:00 +38°C° 0 mm 6 mps 699 mmHg 26%
17:00 +38°C° 0 mm 6 mps 699 mmHg 26%
18:00 +35°C° 0 mm 6 mps 699 mmHg 28%
19:00 +33°C° 0 mm 6 mps 699 mmHg 30%
20:00 +30°C° 0 mm 6 mps 699 mmHg 32%
21:00 +29°C° 0 mm 5 mps 699 mmHg 32%
22:00 +27°C° 0 mm 3 mps 699 mmHg 32%
23:00 +25°C° 0 mm 2 mps 699 mmHg 32%

28 July, Wednesday

Time Temperature Precipitation Wind Pressure Humidity
00:00 +25°C° 0 mm 2 mps 699 mmHg 32%
01:00 +25°C° 0 mm 2 mps 698 mmHg 33%
02:00 +24°C° 0 mm 2 mps 698 mmHg 33%
03:00 +24°C° 0 mm 2 mps 698 mmHg 34%
04:00 +23°C° 0 mm 1 mps 698 mmHg 35%
05:00 +23°C° 0 mm 1 mps 698 mmHg 36%
06:00 +25°C° 0 mm 1 mps 698 mmHg 32%
07:00 +27°C° 0 mm 2 mps 698 mmHg 29%
08:00 +29°C° 0 mm 2 mps 699 mmHg 26%
09:00 +30°C° 0 mm 2 mps 699 mmHg 25%
10:00 +33°C° 0 mm 3 mps 698 mmHg 23%
11:00 +35°C° 0 mm 4 mps 698 mmHg 22%
12:00 +36°C° 0 mm 4 mps 698 mmHg 21%
13:00 +37°C° 0 mm 4 mps 698 mmHg 20%
14:00 +38°C° 0 mm 4 mps 697 mmHg 19%
15:00 +39°C° 0 mm 5 mps 697 mmHg 19%
16:00 +39°C° 0 mm 6 mps 697 mmHg 18%
17:00 +38°C° 0 mm 7 mps 697 mmHg 18%
18:00 +35°C° 0 mm 6 mps 697 mmHg 19%
19:00 +33°C° 0 mm 6 mps 698 mmHg 21%
20:00 +29°C° 0 mm 5 mps 698 mmHg 22%
21:00 +28°C° 0 mm 5 mps 698 mmHg 23%
22:00 +27°C° 0 mm 4 mps 698 mmHg 24%
23:00 +26°C° 0 mm 3 mps 698 mmHg 24%

29 July, Thursday

Time Temperature Precipitation Wind Pressure Humidity
00:00 +25°C° 0 mm 3 mps 698 mmHg 25%
01:00 +24°C° 0 mm 2 mps 698 mmHg 27%
02:00 +23°C° 0 mm 2 mps 697 mmHg 28%
03:00 +23°C° 0 mm 1 mps 697 mmHg 29%
04:00 +22°C° 0 mm 1 mps 698 mmHg 29%
05:00 +22°C° 0 mm 1 mps 698 mmHg 30%
06:00 +24°C° 0 mm 1 mps 698 mmHg 27%
07:00 +26°C° 0 mm 2 mps 698 mmHg 24%
08:00 +28°C° 0 mm 2 mps 698 mmHg 20%
09:00 +30°C° 0 mm 2 mps 698 mmHg 19%
10:00 +31°C° 0 mm 2 mps 698 mmHg 17%
11:00 +34°C° 0 mm 3 mps 698 mmHg 15%
12:00 +35°C° 0 mm 3 mps 698 mmHg 15%
13:00 +36°C° 0 mm 3 mps 698 mmHg 14%
14:00 +37°C° 0 mm 3 mps 698 mmHg 14%
15:00 +37°C° 0 mm 4 mps 698 mmHg 14%
16:00 +37°C° 0 mm 5 mps 698 mmHg 13%
17:00 +38°C° 0 mm 6 mps 698 mmHg 13%
18:00 +35°C° 0 mm 5 mps 698 mmHg 15%
19:00 +32°C° 0 mm 5 mps 698 mmHg 16%
20:00 +29°C° 0 mm 5 mps 699 mmHg 18%
21:00 +28°C° 0 mm 4 mps 699 mmHg 19%
22:00 +26°C° 0 mm 4 mps 698 mmHg 20%
23:00 +25°C° 0 mm 3 mps 698 mmHg 21%

30 July, Friday

Time Temperature Precipitation Wind Pressure Humidity
00:00 +25°C° 0 mm 3 mps 698 mmHg 22%
01:00 +24°C° 0 mm 3 mps 698 mmHg 23%
02:00 +24°C° 0 mm 2 mps 698 mmHg 24%
03:00 +23°C° 0 mm 2 mps 698 mmHg 24%
04:00 +22°C° 0 mm 1 mps 698 mmHg 25%
05:00 +22°C° 0 mm 1 mps 698 mmHg 26%
06:00 +24°C° 0 mm 2 mps 699 mmHg 23%
07:00 +25°C° 0 mm 3 mps 700 mmHg 21%
08:00 +27°C° 0 mm 3 mps 701 mmHg 18%
09:00 +27°C° 0 mm 4 mps 702 mmHg 17%
10:00 +28°C° 0 mm 4 mps 702 mmHg 17%
11:00 +29°C° 0 mm 5 mps 702 mmHg 16%
12:00 +28°C° 0 mm 5 mps 703 mmHg 19%
13:00 +27°C° 0 mm 5 mps 703 mmHg 22%
14:00 +26°C° 0 mm 5 mps 703 mmHg 25%
15:00 +25°C° 0.3 mm 4 mps 703 mmHg 35%
16:00 +22°C° 0.3 mm 4 mps 703 mmHg 45%
17:00 +20°C° 0.3 mm 3 mps 703 mmHg 55%
18:00 +19°C° 0.3 mm 3 mps 703 mmHg 58%
19:00 +19°C° 0.3 mm 3 mps 704 mmHg 61%
20:00 +19°C° 0.3 mm 2 mps 704 mmHg 64%
21:00 +18°C° 0 mm 2 mps 704 mmHg 65%
22:00 +18°C° 0 mm 2 mps 704 mmHg 66%
23:00 +18°C° 0 mm 2 mps 703 mmHg 67%
Show more